#timestamp,LO_Frequency,Hit,StdDev 
1457092815.0,286047002.4,N
1457092815.9,286047002.4,N
1457092835.8,286047005.9,N
1457092855.6,286047002.2,N
1457092875.4,286046999.1,N
1457092895.3,286046998.0,N
1457092915.1,286046999.4,N
1457092916.0,286046999.4,N
1457092935.8,286046997.0,N
1457092955.6,286046997.0,N
1457092975.5,286046999.1,N
1457092995.3,286046998.4,N
1457093015.1,286047000.8,N
1457093035.9,286046998.3,N
1457093055.7,286046999.4,N
1457093075.5,286046998.6,N
1457093095.4,286046999.2,N
1457093115.2,286046996.7,N
1457093135.0,286046996.8,N
1457093135.9,286046996.8,N
1457093155.8,286047000.7,N
1457093175.6,286046998.2,N
1457093195.4,286046997.1,N
1457093215.3,286046997.3,N
1457093235.1,286046998.7,N
1457093236.0,286046998.7,N
1457093255.8,286047000.0,N
1457093275.7,286046998.3,N
1457093295.5,286046999.1,N
1457093315.3,286046998.8,N
1457093335.1,286046998.9,N
1457093355.9,286046998.1,N
1457093375.7,286046996.5,N
1457093395.5,286046998.9,N
1457093415.4,286046999.0,N
1457093435.2,286046999.5,N
1457093455.0,286046996.9,N
1457093455.9,286046996.9,N
1457093475.8,286046996.5,N
1457093495.6,286046995.3,Y
1457093515.4,286046998.6,P
1457093535.3,286046996.5,P
1457093555.1,286046996.6,P
1457093575.8,286046996.2,Y
1457093595.7,286046997.2,P
1457093615.5,286046996.2,P
1457093635.3,286046995.7,P
1457093655.2,286046998.0,N
1457093675.9,286046997.3,Y
1457093695.7,286047000.6,P
1457093715.6,286046997.0,N
1457093735.4,286046997.9,N
1457093755.2,286046996.0,N
1457093775.1,286046997.8,N
1457093776.0,286046997.8,N
1457093795.8,286046996.7,N
1457093815.6,286046997.0,N
1457093835.5,286047000.3,N
1457093855.3,286047000.1,N
1457093875.1,286047001.3,N
1457093895.9,286047001.4,N
1457093915.7,286047002.3,N
1457093935.5,286047002.5,N
1457093955.3,286047000.1,N
1457093975.2,286047002.6,N
1457093995.0,286047002.2,N
1457093995.9,286047002.2,N
1457094015.7,286047003.8,N
1457094035.6,286047003.7,N
1457094055.4,286047001.8,N
1457094075.2,286047003.6,N
1457094095.1,286047003.1,N
1457094096.0,286047003.1,N
1457094115.8,286047002.5,N
1457094135.6,286047000.7,N
1457094155.5,286047002.3,N
1457094175.3,286047000.8,N
1457094195.1,286047001.6,N
1457094215.9,286047001.5,N
1457094235.7,286047001.5,N
1457094255.5,286047001.7,N
1457094275.3,286047002.1,N
1457094295.2,286046999.9,N
1457094315.0,286047001.1,N
1457094315.9,286047001.1,N
1457094335.7,286047000.9,N
1457094355.6,286046999.1,N
1457094375.4,286046998.0,N
1457094395.2,286046996.5,N
1457094415.1,286046998.3,N
1457094416.0,286046998.3,N
1457094435.8,286046996.1,N
1457094455.6,286046999.5,N
1457094475.5,286046998.1,N
1457094495.3,286047001.9,N
1457094515.1,286047000.5,N
1457094535.9,286047004.1,N
1457094555.7,286047003.2,N
1457094575.5,286047005.1,N
1457094595.4,286047004.6,N
1457094615.2,286047004.5,N
1457094635.0,286047005.9,N
1457094635.9,286047005.9,N
1457094655.8,286047005.3,N
1457094675.6,286047006.5,N
1457094695.4,286047007.9,N
1457094715.3,286047009.1,Y
1457094735.1,286047005.8,P
1457094736.0,286047005.8,N
1457094755.8,286047005.9,P
1457094775.7,286047004.6,N
1457094795.5,286047006.9,Y
1457094815.3,286047005.5,P
1457094835.2,286047004.0,P
1457094855.9,286047003.3,P
1457094875.7,286047005.4,Y
1457094895.6,286047000.2,P
1457094915.4,286047000.8,N
1457094935.2,286047005.9,P
1457094955.1,286047010.5,Y
1457094956.0,286047010.5,P
1457094975.8,286047005.6,N
1457094995.6,286047002.9,N
1457095015.5,286047004.6,N
1457095035.3,286047007.4,N
1457095055.1,286047006.3,N
1457095075.8,286047005.0,N
1457095095.7,286047005.7,N
1457095115.5,286047006.9,Y
1457095135.3,286047005.6,P
1457095155.2,286047007.2,P
1457095175.0,286047010.6,P
1457095175.9,286047010.6,Y
1457095195.8,286047002.8,P
1457095215.6,286047004.1,N
1457095235.4,286047001.4,N
1457095255.2,286047005.4,N
1457095275.1,286047004.9,N
1457095276.0,286047004.9,N
1457095295.8,286047010.5,Y
1457095315.6,286047006.9,P
1457095335.5,286047001.9,N
1457095355.3,286047001.1,N
1457095375.2,286047000.4,N
1457095395.9,286046998.1,N
1457095415.7,286047000.8,N
1457095435.6,286046999.4,N
1457095455.4,286047000.6,N
1457095475.2,286046998.6,N
1457095495.1,286046996.3,N
1457095496.0,286046996.3,N
1457095515.8,286046994.7,N
1457095535.6,286046987.6,Y
1457095555.5,286046991.0,P
1457095575.3,286046990.3,N
1457095595.1,286046994.3,N
1457095615.9,286046990.0,N
1457095635.7,286046987.2,Y
1457095655.5,286046994.7,P
1457095675.4,286046993.1,P
1457095695.2,286046991.3,P
1457095715.0,286046992.3,Y
1457095715.9,286046992.3,P
1457095735.8,286046997.0,P
1457095755.6,286046997.3,N
1457095775.4,286046994.0,N
1457095795.3,286046994.5,N
1457095815.1,286046992.0,Y
1457095816.0,286046992.0,P
1457095835.8,286047000.0,N
1457095855.7,286046998.6,N
1457095875.5,286047003.2,N
1457095895.3,286047000.2,N
1457095915.1,286046999.0,N
1457095935.9,286046995.0,N
1457095955.7,286046996.1,N
1457095975.5,286046995.1,N
1457095995.4,286046994.5,N
1457096015.2,286046994.3,N
1457096035.0,286046993.4,N
1457096035.9,286046993.4,N
1457096055.8,286046994.1,N
1457096075.6,286046991.8,N
1457096095.4,286046992.6,N
1457096115.3,286046991.1,N
1457096135.1,286046994.0,N
1457096136.0,286046994.0,N
1457096155.8,286046991.8,N
1457096175.7,286046988.5,Y
1457096195.5,286046990.4,P
1457096215.3,286046990.4,P
1457096235.2,286046992.4,P
1457096255.9,286046992.8,Y
1457096275.7,286047000.5,P
1457096295.6,286046998.4,N
1457096315.4,286046997.8,N
1457096335.2,286046996.2,N
1457096355.0,286046995.1,N
1457096356.0,286046995.1,N
1457096375.8,286046996.2,N
1457096395.6,286046990.5,Y
